TITAN 3C TRANSTAGE DEB, 19595

Orbit data source: Space-Track

TITAN 3C TRANSTAGE DEB, 19595 is space debris in HEO originally from a launch on Tue, 21 Dec 1965 UTC launched from the Air Force Eastern Test Range (AFETR). Debris objects in space refer to the collection of defunct objects orbiting the Earth. Examples of debris include non-operational satellites, rocket bodies, and fragments generated from explosions, collisions, or faulty payload assembly.

Loading next visibility...
Identifier
19595, 1965-108AB
Orbit
HEO
Country
Flag of USUS
Related business
Manufacturer
Unknown
Mission
Spacecraft
Bus & Motor
Unknown
Mass
Unknown
Launch date (UTC)
1965-12-21 (60 years ago)
Launch vehicle
Unknown
Launch site
Air Force Eastern Test Range (AFETR)
Object type
Payload
Rocket body
Debris
Shape & HBR
Unknown shape, 0.2 m
Radar Cross Section
Small (<0.1 m²)

Expand to show TLE details & history
Last TLE update: 4 days ago

TLE from 4 days ago
0 TITAN 3C TRANSTAGE DEB
1 19595U 65108AB  26142.19763684  .00000529  00000-0  48061-3 0  9996
2 19595  26.8408 166.8239 5945804 153.5154 256.2406  4.03226899195983
Epoch: 2026-05-22T04:44Z
TLE epoch observation values (Epoch: 2026-05-22T04:44:35.822Z)
Latitude
-0.00001°
Longitude
-144.13346°
Altitude
16,647.382 km
Speed
3.274 km/s
True Right ascension
11h 07m 23s
True Declination
0° 00' 00"
Sunlit
Object was in daylight at epoch
Visualization orbit readout
Latitude
Unknown
Longitude
Unknown
Altitude
Unknown
Speed
Unknown
Apparent Right ascension
Unknown
Apparent Declination
Unknown
Sunlit
N/A
Visualization observer readout
Local Sidereal Time
17:11:00
Azimuth
Unknown
Elevation
Unknown
Doppler factor
Unknown
Orbital elements
Apogee altitude
20,215.277 km
Perigee altitude
383.197 km
Semi-major axis
16,677.374 km
Eccentricity
0.59458
Inclination
26.8408°
RAAN
166.8239°
Arg. of periapsis
153.5154°
True anomaly
206.5234°
Mean anomaly
256.2406°
Eccentric anomaly
230.10407°
Mean motion
1.00775 °/min
Orbital period
357.23 mins
BSTAR
0.00048061
Loading maneuver chart data...
Computing Atmospheric mass density...

Documentation

Showing up to 5 results
|